Theta_e
357 355 357 358 361 364 363 362 364 364 365 364 364 363 360 357 359 355 355 358 355 356 355 356 359 359 356 356 358 359 360 362 362 360 364 361 363 368 368 367 366 367 366 365 364 364 363 361 359 358 358 356 357 357 357 359 358 357 355 354 355 357 358 358 359 360 361 361 361 362 361 361 362 361 361 361 361 361 362 362 361 361 361 361 361
356 357 352 356 361 364 364 364 362 362 363 363 362 361 360 359 357 358 353 357 356 356 354 356 355 356 355 355 354 357 362 359 360 360 364 363 363 372 368 367 368 366 367 366 365 364 363 362 361 360 358 357 357 357 357 358 359 360 359 359 357 357 358 358 358 358 359 360 361 361 361 361 361 361 361 362 361 361 361 361 361 361 361 361 361
354 358 356 355 360 362 363 364 362 362 364 363 365 364 361 359 357 357 359 358 356 355 353 355 358 354 356 354 355 358 358 361 358 359 359 363 364 365 369 370 368 368 368 367 367 365 364 362 362 361 359 359 358 357 357 358 358 360 361 361 360 359 358 358 358 358 359 360 361 361 361 361 361 361 361 361 361 361 360 361 360 361 360 360 360
359 359 356 358 356 356 359 361 362 363 366 363 363 365 363 361 359 360 360 360 357 355 357 352 356 355 357 354 355 355 357 359 357 357 359 364 363 365 367 369 369 369 368 368 367 367 366 365 363 362 362 360 360 359 358 358 359 360 360 361 361 360 360 358 358 359 360 360 361 361 362 362 362 362 362 362 362 361 361 361 361 360 360 360 360
357 363 361 358 356 356 358 360 364 366 366 365 362 365 363 361 361 360 359 359 355 354 352 351 355 357 356 354 355 354 356 357 359 357 358 360 363 364 365 366 370 370 371 370 369 368 367 367 365 364 363 363 362 361 361 359 359 359 359 361 361 361 361 361 360 359 359 361 361 361 362 361 361 362 361 361 361 362 362 361 361 361 360 360 360
362 361 360 357 359 359 359 358 364 366 367 366 362 364 361 361 358 358 356 355 351 352 349 349 351 354 356 356 356 357 355 354 358 356 357 358 361 365 363 364 365 369 369 372 371 370 369 368 367 366 365 364 364 363 363 362 361 360 360 360 360 361 361 361 361 361 361 361 361 361 361 361 361 362 361 361 361 361 361 361 361 361 361 361 361
364 361 361 360 355 353 355 359 365 368 363 366 362 363 362 361 361 357 356 354 351 353 352 350 350 354 355 358 354 354 356 354 355 356 357 361 361 360 363 363 363 366 366 369 372 372 370 369 369 368 367 366 365 365 364 363 363 363 362 360 359 360 360 361 362 361 361 361 361 361 361 361 361 361 361 361 361 361 361 361 360 360 359 360 360
365 366 359 358 354 352 354 364 366 366 363 364 365 362 361 358 361 359 354 352 354 352 353 351 350 350 354 356 356 357 354 355 354 354 357 360 361 361 362 364 364 364 365 366 369 376 373 371 370 369 369 367 367 366 365 365 365 365 364 363 362 361 361 360 360 361 361 361 361 361 361 361 361 361 361 361 361 361 360 361 360 360 360 359 359
367 367 364 359 355 354 354 358 364 365 362 363 362 362 359 356 362 362 360 354 352 350 350 353 351 350 351 352 352 355 353 356 354 355 355 358 358 357 360 362 364 364 364 365 368 369 376 373 372 371 370 369 368 367 367 367 366 366 365 364 364 364 364 363 362 361 361 361 361 361 361 360 360 360 360 361 360 360 359 360 360 360 360 360 360
368 367 365 360 358 356 357 361 364 365 363 363 363 363 362 359 358 362 360 359 354 352 350 350 347 347 350 349 351 349 350 353 356 356 355 357 359 358 359 361 361 361 363 366 364 366 368 376 373 372 371 371 370 369 368 368 368 367 367 367 366 365 364 364 364 363 361 361 361 360 360 360 360 360 360 359 359 359 359 359 359 359 359 359 359
367 368 366 362 360 356 357 362 366 364 364 363 363 364 361 359 358 359 361 360 357 356 354 353 351 349 347 348 348 349 352 350 355 354 355 354 356 359 357 362 360 361 362 363 363 363 366 368 375 377 375 372 371 370 369 369 369 368 369 369 368 366 366 365 365 364 363 362 362 361 361 361 361 360 360 359 360 360 360 359 360 359 358 358 359
369 368 368 363 358 355 358 362 366 366 363 361 361 363 361 360 359 354 358 359 360 359 356 354 352 350 349 350 350 349 348 349 350 349 354 354 355 358 356 358 361 362 360 362 363 360 366 369 370 368 368 371 373 372 371 370 369 369 369 369 369 368 367 366 366 366 365 364 363 362 362 361 361 361 361 360 359 359 359 359 359 359 359 358 358
367 366 366 364 362 358 359 362 365 365 364 363 362 362 364 361 358 361 354 355 354 355 354 354 352 349 352 347 347 349 348 349 348 348 349 353 354 355 358 355 357 358 363 361 360 360 360 366 371 372 367 366 378 374 373 372 371 371 370 370 370 370 369 368 368 367 366 366 365 364 363 363 362 362 361 361 360 360 359 359 359 359 359 359 359
367 368 366 363 361 356 358 361 364 365 366 367 366 365 364 361 359 355 358 353 353 354 352 353 347 343 338 339 342 344 348 346 345 346 348 349 349 352 357 355 355 354 357 362 361 359 359 362 367 368 369 372 370 374 378 375 374 372 372 371 371 371 370 371 370 369 368 368 367 366 365 364 364 363 362 362 361 361 361 361 360 360 360 360 359
366 366 364 363 359 357 358 363 366 366 366 365 365 364 363 360 359 354 351 355 355 356 354 353 344 346 349 346 336 333 341 341 343 344 345 344 346 347 350 352 350 351 354 357 360 366 360 360 362 367 374 375 373 372 371 373 375 375 373 372 371 371 371 371 371 371 370 369 368 368 367 366 365 363 362 361 361 362 362 361 361 360 361 360 360
361 359 359 358 360 359 359 362 365 368 366 365 365 362 364 362 359 357 356 350 349 351 356 357 353 345 339 338 337 335 332 338 340 342 344 344 343 344 346 347 349 350 352 352 352 360 364 365 367 370 374 377 377 375 371 371 371 373 374 373 372 371 371 371 372 371 371 371 369 369 368 367 365 359 358 359 360 360 360 361 362 362 362 361 361
358 358 356 358 361 362 362 363 364 365 366 364 363 361 361 361 360 359 357 351 347 348 354 354 353 354 345 342 337 334 334 335 338 339 342 340 342 343 346 345 345 348 349 350 352 356 351 356 367 369 374 377 378 376 375 374 373 376 376 373 372 371 369 370 371 372 372 371 370 370 369 369 362 359 360 360 359 359 359 360 360 360 361 361 361
359 357 356 356 361 363 365 364 364 364 364 362 361 361 362 360 361 360 356 356 353 349 348 355 353 356 355 350 347 341 343 344 341 332 344 343 342 342 344 345 345 345 348 348 354 352 354 355 363 370 371 373 373 374 372 372 375 373 376 377 372 371 370 370 370 371 371 370 370 370 370 369 366 362 360 361 360 360 359 360 359 360 360 360 360
360 359 357 359 361 363 366 365 364 364 366 366 363 360 359 359 360 359 357 356 357 352 352 350 355 356 354 353 351 349 345 340 336 338 336 341 343 342 342 346 346 345 345 347 354 356 355 355 355 359 363 365 367 368 370 369 368 370 369 368 369 370 371 371 370 370 370 370 370 370 370 370 368 365 362 362 361 360 359 359 360 361 360 360 359
359 360 360 359 362 363 365 366 365 364 362 362 361 360 360 360 362 363 362 360 358 354 353 351 350 352 354 353 353 351 350 348 346 340 336 336 338 342 343 343 344 344 346 346 347 351 352 354 351 351 356 362 363 364 365 367 370 372 371 371 371 369 369 368 368 369 369 370 370 370 370 370 369 366 364 362 362 362 361 360 360 360 359 359 359
362 358 360 359 360 362 364 365 364 365 365 362 363 361 361 361 363 363 361 358 358 357 356 354 353 351 352 355 352 350 350 350 348 346 340 337 335 337 338 342 343 343 344 346 347 348 352 354 354 354 355 361 366 365 364 368 369 375 371 370 368 367 367 367 368 368 369 370 370 370 371 370 369 366 364 362 361 361 361 361 360 360 360 359 359
362 363 360 361 360 363 361 361 364 363 363 363 362 363 363 363 362 361 362 359 359 356 356 356 356 356 354 353 354 352 350 348 348 346 344 344 337 336 338 338 338 342 346 345 347 349 351 352 356 354 352 358 363 367 371 371 373 369 363 365 365 365 365 365 366 366 368 369 369 370 370 370 369 367 364 362 360 359 360 360 360 359 359 359 359
359 363 360 359 360 362 360 361 363 364 364 363 363 361 361 362 361 362 361 360 356 357 357 360 359 359 357 355 353 351 349 346 348 346 345 343 340 339 341 342 341 340 344 348 349 350 351 352 352 354 358 361 366 367 369 368 366 363 362 361 359 359 358 359 360 360 362 362 363 364 366 367 368 367 366 363 361 360 358 359 359 359 359 359 360
359 358 360 359 359 358 362 363 363 363 363 365 363 362 361 361 360 361 361 361 361 359 359 358 358 358 358 355 353 352 350 349 348 349 348 346 344 342 341 343 342 342 344 351 352 354 354 354 356 356 358 361 366 366 366 368 364 362 370 362 359 359 357 359 358 360 360 361 361 361 362 364 365 365 365 364 363 362 361 359 359 358 358 358 358
357 356 357 360 360 360 361 361 362 364 366 365 364 364 364 360 360 360 360 362 359 359 357 359 359 358 355 356 354 353 352 352 351 349 349 348 347 343 343 344 339 341 346 347 349 355 355 356 356 358 357 361 364 365 362 363 367 361 365 363 359 357 358 357 359 360 361 361 361 361 361 360 361 362 362 363 363 363 362 360 359 358 358 358 358
359 356 358 359 359 360 362 363 366 368 368 368 367 366 367 362 362 361 360 361 360 361 360 361 361 360 359 356 356 354 354 353 353 351 348 347 345 346 347 346 346 344 347 348 351 349 355 358 358 360 358 360 363 365 367 364 361 360 359 363 359 356 355 356 356 357 359 359 360 359 359 360 360 361 361 361 361 361 361 361 360 360 358 358 358
357 360 362 360 360 361 361 364 363 366 370 371 365 366 368 365 364 364 361 359 360 359 359 359 357 359 360 359 357 358 357 356 353 352 352 351 350 349 347 344 345 346 345 347 351 349 351 356 354 356 360 364 366 367 366 362 360 358 361 365 364 356 354 354 355 356 357 358 359 359 359 359 360 360 360 360 361 361 361 361 359 358 358 358 358
359 362 360 360 359 358 361 362 366 367 370 370 368 365 368 364 363 363 361 358 359 360 359 358 357 359 359 360 359 356 357 356 356 355 355 354 352 352 350 349 344 342 345 342 345 348 350 351 354 360 361 364 366 365 363 361 361 358 362 364 364 361 353 354 353 353 355 355 355 356 356 358 359 359 360 360 360 360 360 359 358 357 357 357 358
359 362 363 365 362 359 359 359 363 366 369 369 366 366 368 366 362 364 362 361 360 359 359 358 358 357 358 358 358 358 357 359 357 355 357 358 355 353 353 349 349 345 341 341 342 345 347 352 351 362 363 364 365 361 361 362 360 358 358 363 362 365 353 353 352 352 351 350 351 352 354 355 357 358 359 359 359 358 358 358 358 357 357 358 358
357 359 361 362 362 363 360 359 361 365 365 366 366 364 368 365 363 365 365 364 362 361 360 358 357 357 358 358 359 357 359 358 357 357 357 358 355 355 354 354 355 351 348 340 340 349 350 354 352 355 358 363 360 358 359 360 358 356 359 361 361 362 351 352 352 351 350 348 348 349 351 353 355 356 357 358 357 357 357 358 358 357 357 357 357
359 360 359 358 359 361 362 358 360 363 364 364 365 366 369 366 362 363 366 366 363 362 363 361 358 357 358 357 358 357 358 356 356 355 355 355 355 355 356 359 361 360 352 343 337 347 353 351 353 355 353 360 358 360 358 360 359 356 360 361 361 356 352 357 353 351 348 346 346 346 348 350 352 354 354 355 356 356 357 357 357 357 356 357 357
357 358 357 357 359 358 359 359 356 359 361 362 362 366 368 366 363 360 362 366 363 363 361 360 358 357 359 358 360 358 358 357 357 355 355 357 357 355 360 361 365 361 358 351 345 344 351 354 355 357 356 356 357 358 359 359 358 356 360 358 357 357 358 357 352 350 346 345 344 344 343 345 349 350 352 352 352 353 353 353 353 353 354 353 351
359 358 355 358 360 358 359 360 355 359 363 362 362 363 368 365 363 363 363 364 365 363 362 360 359 358 359 359 361 361 361 358 357 357 357 356 357 358 364 363 359 361 360 354 345 344 349 354 356 355 354 357 354 356 357 356 356 357 355 358 358 356 354 354 356 344 346 344 344 342 342 342 344 346 347 348 349 350 350 350 349 349 348 346 346
358 356 357 357 358 358 357 360 359 356 361 364 363 361 364 366 364 361 362 364 367 366 363 363 361 361 360 362 362 360 363 362 359 358 357 358 355 358 361 360 356 355 360 353 347 345 348 353 351 352 353 357 353 355 356 353 354 355 354 355 356 356 354 354 352 353 342 345 344 342 341 340 340 341 342 344 346 347 347 346 345 343 341 340 338
358 357 357 358 359 358 359 362 361 360 361 362 366 362 362 364 364 361 361 362 365 367 364 364 364 364 362 363 364 364 364 362 361 360 360 359 359 358 356 354 353 354 354 353 348 342 343 346 348 348 354 355 354 352 353 352 352 354 353 354 353 354 354 353 351 353 342 345 343 342 340 338 337 337 338 339 341 341 340 340 337 334 333 333 333
357 358 360 355 359 364 362 362 361 363 361 363 366 365 363 365 364 363 362 363 364 367 366 365 365 364 364 363 365 367 366 362 362 361 363 363 361 358 354 355 355 355 356 352 351 344 348 347 349 348 349 351 352 349 350 349 348 349 351 352 353 351 352 349 349 352 346 344 344 343 341 338 336 335 334 335 336 336 336 332 331 330 329 330 331
361 362 363 362 360 362 359 362 363 364 363 364 366 366 366 366 366 362 362 365 365 367 368 367 367 368 367 364 365 366 366 363 364 363 362 361 359 356 354 355 354 355 356 355 355 349 350 345 346 351 353 353 350 349 348 345 347 347 348 348 348 348 347 346 349 348 347 343 344 343 341 339 337 335 334 333 333 332 332 331 330 328 327 327 328
364 365 365 362 357 356 360 364 364 366 368 366 366 367 366 366 364 364 364 366 367 368 370 368 366 365 361 357 357 365 364 361 362 360 360 358 355 353 353 356 355 354 354 355 355 353 350 350 350 350 352 347 346 349 347 346 343 342 344 346 345 345 346 343 345 345 349 349 349 350 341 338 335 334 335 334 333 332 332 331 331 329 327 325 324
364 363 364 364 361 360 363 365 365 366 366 369 367 367 366 367 367 365 366 366 369 368 361 360 365 358 357 358 355 362 363 362 360 359 358 356 353 351 355 356 356 355 354 353 353 352 351 350 349 348 347 347 347 344 347 347 345 343 340 340 340 343 345 346 344 346 347 348 345 341 343 343 343 344 330 332 333 333 332 331 332 331 329 326 323
362 362 363 363 364 364 364 361 366 365 368 364 366 368 369 368 369 368 367 370 362 358 356 354 356 357 355 358 366 364 361 360 359 359 358 354 355 353 356 355 355 355 353 353 353 352 349 345 343 343 344 344 345 346 345 345 342 342 342 339 338 339 342 345 345 343 345 346 346 347 345 344 345 341 334 334 334 334 335 335 332 330 329 326 325
362 362 363 363 363 362 362 366 364 366 364 364 363 362 366 367 369 370 369 365 363 361 360 359 360 361 362 363 361 361 361 358 358 357 356 353 352 347 354 358 357 355 354 354 349 346 345 343 343 346 343 342 343 343 342 339 338 338 341 342 340 340 341 341 343 345 345 343 344 345 346 342 342 343 348 347 345 342 338 334 333 330 327 325 324
362 363 364 364 364 363 361 361 364 361 360 356 358 357 358 367 371 368 366 364 363 362 360 361 361 360 359 360 359 359 358 358 356 355 353 353 354 353 351 356 357 356 349 347 346 345 345 343 342 342 340 339 341 341 340 340 342 343 341 340 338 339 341 340 343 344 344 343 341 344 347 344 342 342 346 344 342 340 336 333 329 327 325 323 323
360 363 363 364 364 363 363 362 357 359 358 358 356 348 349 357 368 368 364 364 364 363 363 359 356 356 357 359 358 356 355 354 355 353 353 352 352 352 351 349 350 351 349 346 343 345 344 343 343 342 340 340 341 340 341 341 341 340 340 340 340 339 337 336 334 340 344 343 342 342 344 342 343 340 340 340 338 334 331 326 325 325 324 323 322
360 361 361 363 366 367 365 365 364 362 362 358 342 342 346 348 360 365 363 361 362 362 362 358 357 357 357 357 357 352 351 353 354 354 353 351 351 348 349 351 351 351 350 352 349 346 346 343 342 342 341 340 341 342 340 339 339 340 341 340 340 339 338 336 336 335 340 343 340 338 338 342 341 339 339 337 335 330 325 325 324 323 322 321 321
361 359 361 363 363 364 363 363 361 361 360 350 338 339 341 342 347 362 363 363 362 361 359 357 358 358 357 358 356 354 353 353 353 352 354 351 350 348 347 346 345 344 341 343 347 350 348 345 343 342 341 341 340 341 341 338 340 339 338 336 339 338 338 336 336 335 337 341 340 337 335 337 339 336 335 336 338 332 327 326 324 323 321 320 320
360 358 359 361 361 361 361 361 361 362 362 346 336 337 338 338 342 354 362 360 360 358 358 358 358 358 355 354 352 351 350 351 353 351 351 350 350 351 350 348 348 347 345 344 344 344 346 347 344 341 341 341 340 341 343 343 340 338 337 336 338 338 337 336 339 338 337 336 335 333 332 333 334 331 332 338 336 333 330 324 321 322 321 320 319
359 357 357 357 358 359 359 358 361 360 361 338 333 335 335 335 338 355 361 359 356 358 359 359 360 356 355 353 353 351 349 349 351 350 349 348 347 345 345 344 343 344 342 343 345 346 344 344 342 341 340 340 341 341 342 342 342 341 341 340 339 338 339 340 339 337 334 334 333 331 326 329 330 327 328 332 335 334 329 322 320 321 322 321 319
363 361 359 359 358 358 359 358 357 357 360 332 333 333 332 332 338 357 358 356 356 356 357 358 356 356 353 351 351 350 350 348 347 348 346 346 345 344 342 341 338 336 333 330 327 331 341 342 340 336 332 330 329 334 333 336 340 341 341 340 339 337 334 332 330 329 328 331 329 327 324 326 330 324 324 326 328 330 333 329 321 322 321 320 319
360 359 358 359 360 359 358 357 356 357 362 336 329 329 329 329 341 355 356 356 356 356 353 353 353 353 352 351 350 347 347 346 343 336 342 345 344 342 339 337 336 334 330 328 326 326 325 323 323 325 325 325 325 324 324 326 334 337 338 333 330 331 329 327 327 327 324 326 323 326 325 324 325 324 323 324 325 325 329 330 330 321 319 320 319
358 357 357 356 358 358 357 356 357 358 361 341 326 325 326 327 346 354 354 353 351 350 350 350 349 348 348 346 346 346 344 342 334 333 338 346 343 341 338 336 333 330 328 327 325 325 325 325 325 326 327 328 328 328 327 327 328 334 335 329 330 329 329 326 321 325 325 324 321 323 324 322 323 324 323 324 323 324 328 329 328 327 321 318 317
356 356 356 355 355 357 358 358 356 357 359 342 322 324 324 326 345 355 352 349 344 344 343 341 342 343 343 344 345 344 343 337 326 331 335 343 342 339 339 336 333 332 330 331 329 328 329 331 330 330 330 328 330 329 327 326 328 329 332 331 330 327 323 322 321 319 320 321 320 323 318 321 321 320 320 317 316 318 324 326 325 326 326 323 320
Wind_Speed
3 4 3 3 3 3 3 4 3 4 4 4 3 3 3 3 3 4 4 3 4 3 2 3 4 2 2 1 0 1 1 0 1 1 1 1 2 10 12 10 8 7 7 6 6 6 6 6 6 5 4 5 5 5 5 5 5 4 4 5 6 5 5 6 6 6 6 5 5 6 6 7 7 8 8 8 8 9 9 9 10 11 10 11 11
3 3 4 3 4 4 3 3 3 4 4 4 3 3 4 3 4 4 4 4 4 2 3 3 4 2 1 2 1 1 2 2 1 1 1 1 1 8 13 11 9 9 8 8 8 7 7 6 6 6 5 6 6 6 6 6 6 6 5 6 6 6 6 6 6 7 7 6 6 6 6 6 7 7 7 8 8 9 9 9 9 9 10 10 10
5 4 4 4 4 3 4 3 4 4 3 4 3 3 4 5 5 4 4 4 4 4 4 4 3 5 1 2 0 1 1 1 2 3 2 1 1 2 9 13 11 10 10 9 9 8 7 7 7 6 6 6 6 6 7 7 6 5 6 5 6 6 6 6 6 6 7 7 6 6 6 6 6 6 7 7 8 8 8 9 9 10 9 10 9
5 5 5 4 5 4 4 4 4 4 3 4 4 4 5 5 5 5 4 5 5 5 4 5 4 4 2 1 1 1 2 1 3 2 1 2 1 2 3 8 13 11 11 10 10 9 8 8 7 7 7 6 7 7 7 8 7 7 6 6 7 7 7 6 5 6 7 7 7 7 7 7 6 6 6 7 7 7 8 8 8 8 9 9 9
4 5 5 5 6 5 5 4 4 4 4 5 6 5 5 5 5 4 4 5 6 6 5 6 5 3 3 3 1 1 0 3 0 2 2 2 2 2 2 3 6 14 13 12 11 10 10 9 9 8 8 7 7 8 8 8 8 8 7 7 7 7 7 7 6 6 7 8 8 8 8 8 8 7 7 7 7 7 7 7 7 8 8 8 9
5 5 5 6 6 5 5 5 4 4 4 4 4 4 4 5 6 5 4 5 6 6 6 6 5 4 4 2 3 1 2 2 3 3 2 4 3 2 3 3 3 4 7 15 13 12 11 11 10 9 9 8 8 8 9 9 9 9 8 9 8 8 7 7 7 8 8 8 9 9 9 9 8 9 8 8 8 8 8 8 8 7 7 8 8
6 5 6 6 6 6 5 5 4 3 5 3 4 4 4 5 4 5 5 4 5 5 5 6 5 5 4 3 4 3 2 3 1 2 3 3 2 3 3 3 3 3 3 4 13 13 12 12 11 11 11 10 9 9 10 10 10 10 10 10 9 8 8 7 8 8 9 9 9 9 9 9 9 9 9 9 9 9 9 8 8 8 8 9 9
6 6 6 6 6 6 5 4 4 5 4 4 3 5 5 5 5 5 5 5 5 5 6 6 6 7 6 4 4 3 4 2 3 2 3 3 4 4 4 3 3 3 2 3 2 8 15 13 13 13 12 12 11 11 11 11 11 11 11 11 11 10 9 9 9 9 9 9 10 10 10 10 10 10 10 10 10 9 9 9 9 9 9 9 9
7 7 7 7 7 6 6 6 5 5 4 4 4 4 5 5 3 4 5 5 6 7 6 5 6 7 7 6 6 3 4 3 3 3 2 3 3 5 5 4 3 3 4 4 4 3 13 14 14 14 13 13 13 12 12 12 12 12 12 12 12 11 11 11 11 10 10 11 11 11 11 11 10 10 10 10 10 9 9 9 9 9 9 10 10
7 7 7 7 7 6 6 5 5 5 4 4 5 4 5 5 5 4 4 5 5 6 6 6 6 5 5 5 6 5 4 4 2 3 4 4 4 4 3 3 5 5 4 4 4 4 3 11 14 14 14 14 14 13 13 13 13 13 13 13 13 13 13 12 12 12 11 11 11 11 12 12 11 11 11 10 10 10 9 9 9 10 10 10 10
7 8 8 7 7 7 7 6 5 5 5 6 5 5 5 6 6 5 4 5 6 6 7 6 7 7 6 8 8 7 4 5 4 4 4 4 3 2 4 4 4 5 5 5 5 5 5 4 5 6 9 17 15 15 15 14 14 14 14 14 13 14 13 13 13 13 13 13 12 12 13 13 12 11 10 10 10 10 10 10 10 11 11 11 11
8 8 8 8 8 7 7 6 6 5 6 6 6 5 5 5 6 7 6 6 6 6 6 6 7 8 8 8 8 8 7 5 5 6 5 5 4 4 5 4 5 4 5 5 5 6 5 5 5 5 6 12 17 16 16 15 15 15 15 15 14 14 14 14 14 14 14 14 14 13 13 13 13 12 11 11 10 10 11 11 11 11 11 12 12
8 8 8 8 8 7 7 7 6 6 6 6 7 7 5 5 5 5 7 7 6 6 6 6 5 6 7 8 8 8 8 7 7 7 6 4 4 3 4 4 4 5 4 5 4 6 5 6 6 6 7 5 10 16 16 16 16 16 16 16 16 15 15 15 15 15 14 15 15 14 14 13 13 11 10 10 11 11 11 11 12 13 13 14 14
8 9 8 9 8 8 8 7 7 6 6 5 7 6 7 7 7 6 6 7 6 6 5 4 6 7 7 5 6 6 8 7 7 8 8 6 6 5 4 4 5 5 5 4 5 6 6 6 6 8 7 6 6 7 10 12 14 17 16 16 16 16 15 15 15 15 15 15 14 14 13 13 12 10 9 10 12 12 13 14 14 14 15 14 14
9 9 9 9 9 9 8 7 7 6 5 6 7 8 7 8 7 7 6 6 6 5 5 5 7 6 3 4 6 7 6 6 7 8 6 7 5 5 5 4 5 5 4 4 4 5 6 5 6 7 6 7 6 6 6 8 9 14 15 15 16 15 15 15 15 15 14 14 13 13 13 13 10 7 10 11 12 12 13 15 15 15 15 16 15
11 11 10 9 10 9 9 8 7 6 6 6 7 8 7 7 7 8 6 7 6 6 4 3 5 5 6 6 6 5 6 7 7 6 8 7 7 6 6 6 5 4 5 5 5 4 3 4 4 5 5 6 5 6 6 6 7 10 14 15 15 15 15 15 14 14 14 14 13 12 13 12 7 7 14 14 15 15 15 15 14 15 15 16 16
10 10 10 10 9 9 9 8 7 6 7 7 7 8 8 7 7 6 7 7 7 6 4 5 7 6 6 5 5 6 6 7 4 3 6 8 8 7 2 2 7 5 4 5 2 3 4 4 3 4 5 5 5 5 5 5 5 7 8 12 12 12 12 12 14 14 14 15 13 13 13 12 6 12 15 18 18 17 16 16 16 16 15 16 16
10 10 10 10 9 9 9 9 8 7 7 7 8 7 7 8 7 6 7 8 7 6 6 5 6 6 6 7 7 6 4 4 4 5 4 7 7 5 5 5 6 6 5 4 0 4 3 3 2 3 4 4 3 4 4 4 4 3 4 2 10 11 10 11 12 14 15 15 14 13 13 13 11 14 17 18 18 17 17 18 18 18 17 17 16
10 10 10 10 9 9 9 9 9 8 7 7 8 9 8 8 6 6 7 6 6 6 6 6 5 6 7 8 9 8 9 7 7 6 7 5 6 7 6 5 5 7 5 5 4 4 3 4 4 4 3 1 2 4 3 2 1 2 4 3 1 3 6 9 11 12 13 13 13 13 13 14 13 13 16 17 18 18 19 20 19 17 18 18 18
8 9 10 10 9 9 9 9 9 9 8 8 8 8 7 6 4 6 5 5 6 7 6 6 6 6 7 7 8 8 8 9 9 8 8 7 7 8 9 8 7 6 6 6 6 4 5 3 7 4 2 1 2 2 6 1 0 0 2 6 3 4 4 7 8 10 11 11 11 12 12 13 13 12 13 15 17 18 20 21 21 22 22 21 20
8 9 10 10 10 10 10 10 9 9 9 9 9 9 8 7 6 6 7 7 7 7 6 6 7 7 5 6 7 7 7 8 8 8 8 8 8 7 8 7 8 8 8 6 5 6 5 4 4 5 7 4 2 3 4 1 2 0 7 8 4 1 4 5 6 7 9 10 11 11 11 12 12 12 13 14 15 17 19 19 21 22 23 23 23
9 10 10 10 11 11 10 11 11 10 9 10 10 9 8 7 8 8 8 8 7 8 8 7 7 7 6 5 5 6 7 7 8 8 9 9 9 9 8 8 8 6 7 6 7 7 5 6 5 6 7 4 3 2 2 1 1 1 8 8 5 4 4 3 2 4 5 7 9 9 10 10 11 12 13 14 16 16 19 21 21 22 22 22 22
9 9 11 11 11 11 11 11 10 10 10 10 9 9 8 8 8 9 9 9 8 8 8 8 7 6 7 7 6 8 7 7 7 7 8 7 8 8 8 8 9 8 6 8 8 6 7 7 7 6 4 4 1 2 3 3 5 7 3 7 6 5 4 2 3 2 3 5 6 7 7 8 9 10 11 12 14 15 16 18 20 20 21 21 20
10 9 9 11 11 11 12 11 10 10 10 9 9 8 8 7 7 7 8 9 9 9 9 9 10 8 9 8 8 8 8 8 8 7 7 7 8 9 8 8 9 9 6 5 4 6 5 6 5 5 3 2 3 2 1 1 7 9 3 10 7 4 3 2 3 3 5 6 7 7 8 8 8 8 9 10 12 14 15 17 17 18 20 20 21
11 10 11 12 10 10 11 11 10 10 9 9 8 9 8 8 7 8 8 9 9 10 9 9 9 8 7 8 7 8 8 8 7 8 7 7 7 8 8 9 9 8 7 6 5 4 4 4 3 3 3 1 2 1 2 3 4 6 7 10 8 8 5 4 3 4 4 5 6 7 7 8 8 8 8 9 10 12 13 14 16 16 17 18 19
11 12 10 12 11 11 11 11 10 9 9 9 9 9 9 8 8 8 9 8 8 10 10 10 9 10 9 7 8 7 8 7 8 7 7 7 7 7 7 7 8 8 6 6 5 5 2 4 2 0 2 1 3 2 2 3 2 5 2 2 8 8 6 4 3 3 3 4 5 6 7 8 9 9 9 10 10 10 12 13 14 14 16 17 17
11 11 11 11 11 11 12 12 11 11 9 9 9 9 8 8 8 8 8 8 9 9 9 11 10 11 10 9 8 7 6 5 7 9 7 6 6 7 7 8 7 7 7 6 5 5 5 3 4 4 3 2 1 1 1 4 6 4 4 3 7 4 8 5 3 3 4 4 5 6 7 8 9 10 10 11 11 11 12 11 11 12 13 14 15
11 9 10 10 11 11 11 12 11 11 10 10 10 9 10 10 9 8 9 8 8 10 9 10 11 11 11 9 9 9 8 8 9 8 6 6 7 6 6 6 6 7 6 7 8 7 5 5 3 6 3 2 2 3 2 5 2 8 6 4 0 5 7 5 2 3 4 5 4 6 7 8 9 9 10 10 10 11 12 12 12 11 11 12 14
8 9 9 8 10 11 11 12 12 11 11 10 10 10 9 10 10 9 10 10 9 10 9 10 9 10 10 11 9 8 8 7 8 7 6 5 7 7 5 6 5 5 6 6 6 5 8 6 2 2 5 4 3 5 5 5 7 6 5 4 3 1 6 4 1 2 5 5 5 7 7 8 9 9 9 9 10 10 10 10 11 11 11 11 12
8 7 6 10 11 11 11 11 11 12 12 11 11 12 10 9 10 10 10 9 9 9 9 10 10 9 10 10 9 8 7 7 7 7 7 6 6 6 5 5 3 2 1 3 5 6 7 4 2 3 5 5 5 5 4 5 11 6 6 4 4 3 4 2 2 2 4 5 5 7 7 8 8 9 9 9 9 9 9 10 11 11 11 11 11
8 9 10 10 10 10 11 12 11 12 12 11 11 10 10 9 10 9 10 9 9 9 9 9 9 9 10 11 9 8 7 7 7 7 7 6 6 5 5 1 3 3 3 3 3 3 4 5 5 7 3 9 5 5 4 4 5 5 4 4 4 5 5 4 5 5 3 4 5 6 7 7 8 8 8 8 8 8 9 9 10 10 10 11 11
12 11 11 11 11 13 12 13 13 13 13 12 12 11 10 10 10 10 10 10 10 10 9 9 8 9 10 11 9 8 6 6 7 6 5 4 4 6 2 1 1 2 3 4 6 8 5 8 7 4 9 4 4 3 3 3 3 3 4 5 3 4 5 1 9 6 6 5 5 6 6 7 8 8 8 8 7 7 8 8 9 9 10 10 10
11 12 12 12 10 13 13 11 14 13 12 12 12 11 10 11 10 10 10 10 11 10 9 10 10 10 10 10 9 8 7 8 6 6 5 5 4 3 2 3 4 4 3 4 5 8 7 5 5 6 4 3 3 2 3 3 3 3 3 4 4 4 3 4 4 7 7 5 5 6 6 6 7 8 9 8 8 8 9 9 9 10 10 10 11
12 12 12 11 11 12 13 14 13 14 12 12 12 11 11 11 12 10 11 11 10 10 9 9 9 9 8 8 8 8 7 7 6 6 5 6 6 5 4 4 5 6 4 3 6 7 8 5 3 9 2 1 4 1 2 4 4 3 4 3 3 3 3 3 4 6 8 6 4 4 5 6 6 8 8 9 9 10 10 10 10 10 11 11 11
13 13 13 12 12 13 12 11 13 14 13 13 12 12 11 12 12 12 11 12 11 10 10 10 9 9 10 8 7 7 5 6 6 6 6 6 5 6 8 6 6 4 3 6 3 6 7 4 3 7 1 1 2 1 3 3 3 3 4 3 3 3 2 4 4 3 8 4 2 2 3 5 6 6 7 8 9 10 11 11 11 11 11 11 11
14 13 12 14 13 12 13 15 15 13 13 13 12 12 12 12 12 12 12 11 10 11 10 10 10 9 10 9 7 6 6 6 6 5 5 5 5 6 8 5 5 4 3 4 7 2 6 5 3 4 1 2 1 1 2 2 3 3 4 4 3 4 4 4 2 2 6 3 1 1 3 5 5 6 6 7 8 11 11 11 11 12 11 11 11
13 12 12 11 12 11 12 15 13 13 13 13 12 12 11 12 12 12 12 11 10 9 9 9 8 8 7 7 4 5 5 6 5 5 4 5 5 6 7 6 5 5 4 5 4 6 4 6 3 2 1 0 1 2 3 4 3 2 3 3 3 3 4 4 2 1 7 7 5 6 6 7 7 7 8 9 10 12 12 12 12 13 11 11 11
13 12 12 10 10 15 14 14 13 13 11 12 13 12 12 12 12 12 11 11 10 9 8 8 7 8 6 4 6 7 7 7 6 5 5 4 3 6 10 7 5 4 5 5 4 4 5 4 3 1 1 2 0 2 2 4 4 2 2 2 1 2 2 3 3 2 3 2 1 4 7 8 10 10 9 10 10 12 14 13 13 13 14 13 13
13 12 12 12 13 12 10 11 13 12 12 11 11 12 12 12 12 13 11 11 8 2 2 3 2 3 8 8 11 8 8 6 5 5 5 5 5 8 8 5 6 5 4 5 4 4 4 4 2 2 2 1 1 1 2 2 1 2 5 4 3 2 2 3 2 2 2 1 2 2 5 7 5 5 9 10 11 9 13 15 14 14 13 13 13
12 12 12 12 11 11 9 13 12 11 9 9 12 12 12 12 11 11 10 5 5 6 6 6 6 5 5 6 6 7 7 7 6 5 5 4 5 5 6 6 5 5 5 5 4 4 4 4 3 1 2 1 1 0 1 2 3 1 3 2 3 3 3 2 2 2 2 4 3 2 6 5 4 7 9 12 13 13 9 12 15 14 13 10 10
11 12 13 12 13 12 12 8 9 7 8 8 6 11 11 12 10 7 7 8 7 7 8 8 7 8 8 7 9 8 6 6 9 8 6 5 3 7 7 5 6 6 5 4 4 3 2 2 2 2 1 1 1 1 2 3 3 4 3 3 3 3 3 3 1 1 2 4 4 4 4 4 2 2 2 1 3 7 12 12 10 14 14 11 11
13 12 13 13 13 13 12 12 7 8 7 8 9 10 12 8 8 8 8 7 8 8 9 8 7 7 8 8 8 10 8 9 9 9 7 6 5 2 5 4 5 3 5 6 2 2 3 3 3 3 3 1 1 2 2 2 2 3 3 3 4 4 4 4 1 1 3 5 5 5 4 4 4 3 2 1 4 6 7 8 8 9 9 10 11
14 13 12 13 12 11 11 9 10 7 7 6 11 11 14 13 10 9 9 9 9 8 8 8 8 9 9 9 6 6 7 7 7 7 6 4 5 3 4 3 5 4 4 3 3 3 4 3 2 2 1 1 2 1 2 3 3 3 3 3 3 3 3 5 4 0 4 7 6 5 4 5 4 3 2 1 3 6 7 8 8 9 10 11 11
14 13 13 12 10 9 9 9 10 10 8 9 11 14 15 14 12 9 10 9 8 8 8 8 9 9 10 9 7 7 6 8 6 5 6 7 6 4 4 5 6 9 10 5 3 4 3 3 1 1 2 1 1 1 1 3 3 3 3 3 3 3 4 4 4 4 5 7 6 5 4 5 4 4 3 3 5 6 7 7 8 9 10 10 10
13 13 11 10 10 9 10 11 12 11 10 11 15 15 15 15 14 11 9 9 9 9 9 10 10 10 9 9 8 7 5 10 10 9 8 7 11 14 14 12 11 11 10 11 12 7 0 1 2 3 2 2 1 2 4 3 3 4 3 3 3 3 3 3 3 2 4 6 5 6 5 4 5 5 3 1 2 5 7 8 8 8 8 8 9
11 11 10 9 9 10 10 11 11 10 10 14 17 17 15 16 15 13 10 10 9 10 11 11 10 11 11 10 9 8 7 7 7 9 9 9 9 9 8 6 6 8 9 8 8 10 7 5 3 4 5 3 3 4 3 3 4 5 5 5 4 4 3 4 3 3 3 5 5 6 6 3 4 6 5 3 2 4 5 8 8 8 7 7 9
10 10 9 9 10 9 10 11 10 10 8 16 17 17 15 15 14 12 9 9 10 10 10 11 10 10 10 10 10 10 9 8 8 8 9 8 8 6 5 5 5 7 8 8 8 4 3 3 3 5 5 5 6 6 6 4 5 4 4 5 4 3 4 1 1 2 3 5 6 5 5 5 4 5 5 4 2 2 8 8 10 8 6 4 5
6 6 7 8 9 10 11 10 11 11 8 17 17 17 16 15 13 11 10 10 10 10 10 10 10 9 10 10 10 10 10 8 9 8 7 7 7 6 6 6 7 7 8 9 11 13 11 8 8 8 8 8 8 6 6 6 5 5 5 3 3 3 4 4 3 3 2 4 7 6 5 4 4 6 6 7 6 6 3 7 9 9 6 2 2
8 8 9 9 10 11 12 11 12 11 8 14 17 16 15 15 13 11 9 9 9 10 10 9 9 10 10 10 10 9 9 8 7 4 6 9 9 8 8 8 7 7 7 8 12 12 13 15 14 12 9 9 10 10 9 9 7 6 5 3 2 3 4 3 3 3 2 4 6 7 5 5 4 6 6 6 7 7 6 4 3 12 7 6 3
10 10 9 11 11 12 13 13 12 11 8 12 16 15 15 16 15 10 8 9 10 10 10 11 10 9 10 12 10 9 9 8 7 6 4 8 9 9 8 8 8 7 7 7 7 8 10 10 9 8 7 7 8 9 9 9 10 7 4 3 4 4 2 2 3 4 3 3 6 7 5 3 4 5 5 6 8 6 6 4 4 5 3 5 6
9 9 11 11 10 7 8 11 12 11 8 10 16 17 17 18 15 11 10 10 12 12 11 10 9 8 9 9 12 10 10 10 9 6 4 7 8 8 8 8 7 6 6 6 7 8 7 7 7 7 7 6 6 6 8 10 10 9 6 5 4 3 3 4 3 3 4 4 7 8 5 5 5 5 6 6 6 6 5 5 5 6 5 6 8
Wind_Direction
269 272 278 295 291 293 302 311 314 306 311 286 328 321 301 310 298 276 263 276 273 279 320 317 289 105 307 146 104 73 123 302 86 121 297 120 164 150 175 188 203 210 216 224 228 232 227 233 239 240 252 249 258 265 252 253 255 263 235 240 250 258 269 275 276 265 253 258 270 281 279 278 281 278 269 263 257 261 265 263 257 260 259 259 261
268 277 277 277 283 283 279 289 307 293 282 311 315 303 310 318 288 276 297 282 276 294 284 305 297 330 36 337 30 299 120 187 150 219 156 162 111 136 174 184 204 209 216 220 223 222 227 231 236 239 232 246 240 254 264 257 255 245 247 241 241 249 264 268 273 278 275 276 276 276 279 275 268 267 266 266 268 266 261 261 262 268 261 260 262
269 269 270 257 252 254 270 285 283 296 305 293 303 311 312 308 299 316 288 286 284 290 278 273 274 274 94 262 121 207 341 61 276 143 228 152 145 146 168 184 198 207 214 218 221 223 224 229 234 241 235 237 240 239 251 266 271 256 247 250 252 260 247 245 252 263 263 266 271 273 275 273 275 273 273 270 267 264 265 264 260 251 260 262 257
271 277 272 269 269 271 273 273 283 284 302 295 293 319 307 290 302 285 288 278 260 256 260 266 256 262 259 251 224 272 161 200 229 147 247 118 166 205 170 178 192 205 211 217 219 222 223 225 229 232 237 235 238 239 239 248 252 262 259 250 251 253 255 253 242 251 256 259 265 271 271 273 270 269 271 269 266 268 266 263 264 263 257 255 253
248 248 251 253 264 273 275 280 277 290 290 300 309 293 278 277 270 272 269 269 265 256 252 254 250 247 262 258 282 255 266 207 289 297 177 177 181 216 208 188 187 192 205 210 215 220 220 222 224 229 232 232 234 238 241 238 245 249 253 248 247 246 252 257 258 245 244 248 254 259 262 262 261 259 258 260 259 259 263 268 271 267 264 262 259
243 238 250 250 253 253 268 278 284 271 286 281 282 288 286 294 288 290 279 266 264 257 252 257 261 246 240 246 255 280 258 284 183 206 214 222 176 174 223 196 208 185 199 200 209 213 219 220 223 226 229 230 232 238 238 240 239 242 244 245 244 243 246 252 249 241 243 248 249 251 255 258 261 264 262 260 262 263 262 263 261 263 260 264 265
226 242 235 247 256 253 258 265 276 303 279 279 279 286 288 275 281 284 285 277 259 259 271 266 270 269 263 269 268 270 302 270 302 233 216 204 205 190 211 232 203 223 217 185 196 207 210 218 221 225 224 228 230 230 232 236 239 237 242 243 243 241 242 244 250 249 244 246 248 250 252 256 259 259 259 260 261 263 263 262 264 267 267 264 262
222 220 243 244 251 259 255 259 266 264 265 269 278 267 267 273 277 291 290 291 307 274 241 240 243 254 261 264 259 246 257 276 266 239 210 227 200 193 202 211 225 229 232 266 217 188 199 210 218 220 223 225 225 226 230 232 235 236 235 236 243 249 250 246 244 244 249 251 252 252 252 255 256 257 259 259 261 262 266 268 268 267 270 271 270
213 218 233 238 249 255 254 251 246 255 266 271 263 269 272 280 277 276 291 281 276 275 262 257 257 246 246 245 254 263 270 293 285 286 184 227 233 215 203 188 219 238 234 241 235 250 184 204 210 219 221 225 224 224 226 231 231 233 233 236 238 239 240 243 248 248 245 247 252 253 254 254 253 254 256 259 261 265 268 271 272 271 268 267 266
212 216 225 241 251 256 267 277 269 256 258 266 264 271 270 265 268 268 279 287 275 277 279 264 263 267 259 253 262 260 259 260 284 284 259 224 225 248 234 199 200 209 222 232 245 223 236 192 208 214 220 222 223 223 225 227 230 230 232 234 234 234 235 238 239 243 248 245 246 250 252 252 251 252 255 257 257 259 263 264 265 266 265 264 262
215 214 222 229 234 242 250 252 259 257 260 259 259 259 278 281 278 271 265 270 290 291 294 299 281 268 259 247 246 248 247 257 265 252 254 253 245 223 226 215 237 211 200 216 231 228 225 248 208 226 220 215 221 221 223 225 226 229 232 233 233 233 235 235 237 239 241 246 245 245 247 249 252 254 254 257 261 260 257 256 258 261 265 265 267
214 215 221 231 237 239 241 245 236 245 250 260 268 258 247 251 252 267 278 276 255 255 255 263 264 263 270 278 269 266 261 263 268 261 246 247 232 223 247 217 213 226 234 214 213 237 204 216 229 241 255 205 207 213 217 220 222 226 229 230 230 232 234 235 237 238 240 242 246 246 245 247 248 250 251 254 258 263 261 259 258 259 260 260 260
214 215 218 223 236 243 243 239 244 243 246 254 261 274 283 285 281 266 261 262 272 266 256 261 285 279 265 262 261 257 256 241 246 266 264 261 255 236 245 254 255 236 218 245 240 234 226 200 210 226 237 250 196 207 212 215 220 222 224 225 228 230 233 235 237 239 240 241 245 247 248 248 249 251 255 258 263 263 264 264 260 255 254 250 247
212 213 218 223 226 232 231 236 236 235 246 260 274 273 266 259 267 260 240 254 266 267 277 299 255 252 257 255 250 242 242 252 248 232 242 232 243 235 239 278 257 247 236 222 232 238 237 217 210 215 226 227 233 215 206 213 219 220 221 222 225 228 230 233 236 239 240 242 245 247 248 250 253 256 261 261 260 260 259 256 255 255 254 253 249
213 210 215 219 226 230 235 232 227 229 230 239 243 250 253 254 248 253 268 250 249 250 253 249 277 282 289 274 263 257 219 231 250 257 257 267 257 247 229 223 250 253 248 235 226 223 241 242 220 214 218 224 224 229 227 219 226 204 211 219 224 226 230 232 235 239 243 246 247 246 246 247 249 281 279 271 267 259 256 254 255 257 255 254 254
215 215 216 217 219 226 232 236 224 218 232 244 251 252 246 248 250 242 246 267 255 249 235 235 265 279 257 247 254 249 260 226 229 240 249 243 243 247 216 214 229 235 247 247 232 208 219 238 231 235 225 231 234 230 230 238 208 184 196 212 216 224 229 233 237 240 245 248 249 249 248 246 222 228 253 259 259 257 256 257 253 252 253 252 250
221 219 221 215 216 219 232 234 232 217 225 232 239 250 253 251 244 250 240 248 258 262 252 253 244 235 274 281 259 248 246 263 248 242 251 243 225 234 180 266 250 227 244 245 274 325 268 213 220 231 227 229 233 235 246 240 235 227 203 202 215 225 230 236 241 246 250 254 254 252 250 246 215 221 233 240 244 247 250 253 253 253 254 257 258
220 219 219 217 209 216 222 233 228 219 226 244 253 254 250 249 242 237 239 231 252 263 260 229 253 253 228 254 281 290 299 303 310 261 250 290 289 266 243 221 256 253 256 278 337 273 249 264 186 227 226 228 234 240 236 241 245 246 250 159 199 218 228 233 241 249 252 258 260 259 256 255 239 221 231 237 239 244 246 248 248 247 248 251 252
220 214 217 215 217 213 219 227 234 232 224 233 242 249 252 247 244 235 240 248 233 252 257 264 245 240 234 238 245 245 260 265 261 267 260 242 249 262 248 224 243 261 255 265 178 220 266 274 226 223 197 225 262 322 276 246 209 237 30 353 204 175 216 229 243 248 256 259 259 258 257 256 251 233 232 238 235 236 245 247 246 247 248 248 248
226 215 212 212 214 217 217 225 233 234 232 232 240 245 248 253 235 241 248 239 234 242 254 260 253 242 251 256 241 245 252 254 258 270 271 266 257 257 257 262 251 253 259 253 260 236 253 274 292 291 287 159 86 262 288 335 46 300 191 165 208 249 245 258 254 258 262 263 261 261 260 258 255 244 235 238 243 246 245 249 253 258 258 255 253
216 221 208 216 210 219 219 221 226 231 233 235 238 240 239 240 232 223 224 228 229 231 240 249 252 258 242 240 257 259 246 242 251 249 259 265 262 257 262 261 267 264 264 261 269 274 270 256 279 293 280 275 176 203 259 25 49 139 89 94 67 344 292 292 285 283 283 276 274 268 264 261 257 244 235 236 238 242 244 245 251 253 255 257 259
211 213 217 213 217 214 220 223 223 228 231 234 236 235 233 228 223 226 226 227 227 228 230 236 245 255 258 255 246 256 264 260 242 244 246 246 258 262 262 267 268 266 271 262 265 277 284 284 282 278 293 316 321 321 50 72 62 91 79 64 58 42 25 357 326 298 277 273 271 269 265 264 259 248 238 235 236 239 243 247 251 253 254 256 261
224 209 212 215 216 218 223 223 224 223 225 230 232 235 229 224 225 219 222 222 222 225 229 236 242 243 248 246 241 237 238 249 254 257 265 263 262 263 268 273 276 280 277 283 286 283 285 290 288 294 311 288 0 351 58 80 83 53 63 101 100 65 40 41 351 294 288 275 276 280 279 273 267 259 247 242 244 245 247 251 254 256 258 260 262
229 226 212 212 213 215 219 226 225 225 219 223 233 233 234 230 226 218 213 213 224 226 231 230 231 231 239 242 239 249 247 245 247 244 246 262 274 275 276 281 277 272 277 277 278 276 279 290 296 299 323 335 46 354 72 162 83 40 357 136 120 81 109 7 306 291 289 285 285 287 284 283 279 275 272 262 257 257 259 263 263 264 265 266 269
238 223 218 214 212 211 215 217 222 220 225 221 223 231 240 239 226 218 220 209 213 222 226 231 231 238 237 237 246 248 251 256 257 262 263 263 262 272 272 277 283 286 286 294 286 273 284 285 301 304 308 350 113 341 335 27 84 60 323 129 114 112 76 19 348 317 298 285 283 284 285 287 289 283 283 283 270 262 264 267 269 270 270 272 276
234 234 222 215 216 211 207 216 219 219 215 221 226 225 223 233 231 228 226 218 220 221 231 234 234 234 241 249 247 252 253 252 256 257 261 264 266 271 286 288 287 286 290 283 296 293 276 291 275 257 279 355 27 31 354 323 141 78 353 302 113 110 80 55 3 335 317 296 291 289 286 286 285 285 282 278 280 275 266 266 269 271 275 278 278
229 228 219 222 221 217 210 211 211 213 210 213 219 217 217 224 234 229 233 226 223 230 228 232 235 235 236 244 257 257 260 280 292 267 258 260 269 280 285 285 286 292 295 282 263 259 301 282 327 332 15 9 355 0 342 320 81 42 310 265 123 117 107 73 22 352 332 324 309 299 293 288 288 286 285 287 283 279 281 280 274 274 279 284 284
257 228 217 222 224 222 216 213 212 204 205 211 219 218 205 218 223 220 224 230 227 223 234 239 237 237 238 240 247 251 247 238 235 254 265 273 271 267 272 283 287 289 299 310 317 311 301 285 339 339 331 14 333 288 353 290 45 14 276 309 25 137 96 100 39 359 335 327 316 309 300 298 295 291 290 289 288 287 288 290 289 289 284 282 284
274 314 296 239 223 229 226 219 209 209 204 205 214 221 209 215 220 219 224 224 228 229 229 232 240 239 234 236 237 241 246 243 252 258 258 266 268 275 275 281 296 293 302 290 287 289 298 315 306 330 358 318 308 310 311 311 43 357 317 306 325 338 89 96 144 33 336 331 325 317 308 304 302 301 300 299 299 304 303 301 301 304 302 298 299
256 246 240 280 261 222 231 229 221 207 211 203 208 219 208 218 226 220 222 229 230 232 230 234 234 236 238 236 232 235 239 246 248 248 252 247 256 261 268 269 274 251 227 268 281 284 293 327 46 222 293 285 300 308 311 314 81 350 325 326 307 30 60 44 220 88 354 339 333 327 322 319 315 314 316 318 316 313 311 309 312 313 311 311 312
236 229 239 239 255 248 222 230 223 218 209 214 206 210 203 216 225 222 221 222 230 234 234 234 241 240 233 236 235 239 247 254 258 257 253 252 255 261 269 351 79 99 136 165 276 276 309 292 353 11 292 278 318 314 309 321 56 357 318 320 306 50 296 180 167 118 25 351 339 335 332 331 326 326 327 325 325 323 320 321 321 320 320 321 329
227 225 232 233 231 243 231 225 227 216 215 212 212 207 204 218 226 225 221 215 222 229 235 235 236 234 235 236 236 242 245 252 255 264 269 270 279 276 42 88 128 124 148 214 247 272 300 311 302 252 247 333 293 290 306 293 119 162 331 307 333 199 250 108 152 98 84 14 354 347 344 343 344 345 344 343 339 336 335 334 332 332 335 340 343
222 225 226 227 227 239 247 237 232 226 219 218 214 212 207 214 224 230 233 218 215 222 226 237 239 233 231 237 240 241 247 254 258 259 269 274 263 272 280 262 242 221 215 212 246 265 276 262 286 291 306 339 300 305 303 318 334 342 311 309 316 321 339 326 111 104 86 40 2 354 355 351 355 359 359 360 0 0 2 360 358 355 352 352 357
221 224 214 222 221 229 237 234 232 232 220 219 220 216 213 216 218 222 222 222 214 220 226 224 232 244 237 232 238 240 236 248 260 272 256 255 265 267 265 263 269 264 192 197 245 260 284 288 282 242 200 148 276 336 349 344 359 334 325 325 319 336 339 344 313 98 74 59 359 6 4 14 15 16 17 21 26 26 27 22 17 10 5 1 5
219 227 219 213 220 227 231 241 238 229 222 216 215 221 220 218 217 221 222 218 214 214 217 219 222 228 236 238 233 235 232 230 233 241 254 266 269 259 266 288 296 265 177 200 236 267 260 271 322 294 318 215 327 349 352 1 343 318 311 321 341 332 339 329 299 61 82 47 28 18 39 51 47 36 35 38 44 45 41 36 30 24 17 11 11
219 218 210 221 214 214 226 224 225 223 221 215 215 217 220 219 218 220 224 225 217 215 215 216 220 226 232 237 233 212 204 219 229 223 229 246 259 268 268 248 253 254 269 264 215 276 270 288 217 249 153 302 124 266 10 325 330 342 331 329 322 335 334 296 291 349 98 100 201 139 110 99 84 72 70 62 62 58 52 44 37 31 24 22 19
221 213 210 218 226 218 226 224 220 219 217 217 217 219 217 216 218 223 222 222 221 213 213 215 213 230 233 236 233 198 191 208 195 225 238 232 260 300 281 261 238 242 249 251 211 216 244 238 213 152 60 133 219 29 17 336 318 356 336 334 344 329 351 299 326 86 136 185 201 185 163 134 112 99 79 72 76 69 61 52 44 36 26 18 18
219 217 214 205 224 226 221 221 217 215 215 219 217 218 217 217 218 219 221 218 214 210 205 215 203 230 233 155 259 201 206 211 206 212 221 229 247 249 257 260 257 238 223 233 234 226 241 268 274 205 196 230 232 77 29 327 324 347 357 352 330 29 337 320 9 342 16 330 213 178 170 153 114 92 80 77 82 77 68 58 49 42 37 29 26
212 215 215 211 218 223 217 226 221 215 214 219 225 219 218 217 216 217 214 215 203 145 28 310 250 232 236 197 210 208 209 206 197 214 220 224 234 254 247 228 224 231 224 232 240 241 235 248 257 240 158 137 359 57 55 314 287 11 349 348 331 25 57 314 293 10 331 335 110 312 345 12 41 73 100 87 78 85 78 65 53 46 40 37 35
218 220 218 215 217 224 217 220 218 222 213 217 226 224 216 214 214 214 210 170 119 136 157 174 179 188 155 221 189 200 201 203 218 231 222 243 247 278 237 226 223 215 231 232 222 232 238 243 253 214 224 121 127 126 225 272 335 29 38 335 332 345 330 280 293 330 359 309 315 276 212 179 183 132 138 106 86 66 57 81 67 46 45 38 37
220 220 223 223 222 218 222 224 224 214 215 217 224 238 224 216 211 184 142 157 163 156 170 174 177 186 179 189 204 202 197 207 212 215 217 239 233 239 228 210 225 219 228 236 212 236 265 277 236 208 212 181 116 295 332 349 356 343 332 336 326 321 301 291 245 341 335 321 332 331 300 301 344 359 346 25 99 101 72 45 58 58 42 43 42
224 222 221 223 222 219 217 210 202 209 207 221 230 252 261 233 160 170 181 174 180 189 183 180 175 188 193 193 201 205 208 210 217 223 234 251 241 11 310 229 225 244 238 225 217 218 236 236 240 235 226 211 114 50 337 336 319 305 314 339 322 338 313 296 318 326 0 353 348 335 334 316 347 349 333 54 83 57 55 49 37 32 38 38 41
223 222 220 220 218 218 213 200 208 201 214 217 217 232 201 177 182 175 174 179 188 193 193 182 186 191 198 197 179 198 205 206 215 227 231 229 229 196 180 304 332 287 236 251 238 228 233 238 206 240 253 306 85 114 285 327 326 322 328 334 323 325 326 316 317 140 27 358 349 334 323 337 342 321 345 28 68 62 70 61 40 44 38 40 37
220 221 222 216 208 193 202 199 194 201 202 205 169 187 177 179 186 187 185 187 186 195 190 190 193 189 185 181 158 171 205 220 186 188 166 186 188 149 84 63 60 52 37 15 300 239 229 214 180 86 288 192 170 218 342 337 334 324 332 315 335 318 319 317 343 353 20 354 343 332 327 321 314 321 318 31 88 75 72 81 73 50 45 40 38
220 220 215 208 207 201 208 212 214 209 216 184 176 173 177 182 189 193 195 182 184 185 187 191 187 183 178 170 159 172 154 166 164 170 164 144 111 103 101 95 78 65 53 46 36 25 138 151 168 154 108 20 16 87 42 5 325 322 329 318 344 318 323 337 17 19 27 348 336 333 332 321 306 317 298 20 116 119 117 96 80 69 56 43 43
220 224 218 210 208 206 207 218 217 207 211 162 174 176 180 188 188 193 187 181 184 187 187 189 186 178 175 165 160 162 162 166 173 160 155 151 144 147 146 131 113 107 98 78 76 59 44 61 74 86 65 21 29 29 41 339 323 332 326 331 341 325 335 357 38 57 58 3 2 335 308 302 334 317 319 5 8 124 97 110 100 85 59 43 39
217 218 214 215 216 208 210 219 220 209 209 160 178 179 188 190 185 192 187 185 187 184 185 187 180 171 161 165 163 162 160 168 178 171 158 155 160 161 144 120 95 62 44 35 26 34 84 88 90 87 75 38 29 22 5 337 332 319 326 322 320 323 306 302 212 269 103 40 4 349 326 328 9 326 329 333 333 173 136 127 113 97 86 66 40
207 201 206 208 209 211 215 220 223 216 198 163 177 182 188 188 173 193 194 189 180 178 177 176 163 156 158 159 158 157 161 156 142 143 153 152 148 150 135 126 112 88 70 56 52 46 46 53 61 67 68 63 51 49 28 357 337 334 299 286 285 296 297 286 237 119 352 50 21 12 328 323 6 331 328 320 327 304 264 129 114 114 120 116 70
216 210 214 210 210 210 214 216 218 216 197 171 172 179 183 175 172 192 186 182 177 174 157 151 154 155 154 154 151 147 138 134 109 108 138 154 153 151 149 143 122 110 103 87 68 66 71 75 83 90 100 96 72 52 36 18 360 325 307 281 291 349 303 287 280 267 64 50 35 11 333 299 356 325 316 323 316 312 296 278 181 119 137 173 135
218 215 217 221 220 218 219 219 215 214 194 171 169 174 178 173 184 177 162 167 157 149 146 147 144 141 131 126 128 131 129 119 101 114 151 176 154 152 154 142 139 126 130 128 117 102 102 103 104 104 101 107 106 83 53 31 24 6 358 4 358 311 304 297 318 334 79 68 42 5 316 329 354 313 313 314 302 271 261 268 345 327 28 349 345
217 213 216 220 221 216 217 220 216 214 195 168 168 173 177 176 185 176 170 153 148 150 139 133 127 115 123 130 132 130 123 114 114 116 195 175 146 162 156 154 142 140 138 136 126 132 148 146 139 133 128 124 100 79 69 57 40 41 36 21 6 0 359 2 351 326 255 104 45 9 335 333 337 331 332 317 307 318 308 338 331 315 336 337 330